Location: Unspecified
(54.1780°N, 0.0000°E)
Time: 10:17:43
(UTC+00:00)

Explorer 7 - Pass Details

Date: 24 June 2019
Orbit: 485 x 680 km, 50.3° (Epoch: 16 July)

Event Time Altitude Azimuth Distance (km) Brightness Sun altitude
Rises 10:29:55 0° 256° (WSW) 2,819 10.3 54.7°
Reaches altitude 10° 10:32:11 10° 252° (WSW) 1,951 9.6 54.9°
Maximum altitude 10:36:33 53° 176° (S) 777 9.4 55.3°
Drops below altitude 10° 10:41:10 10° 100° (E) 2,061 10.3 55.7°
Sets 10:43:36 0° 96° (E) 2,996 10.9 55.9°
